Lid_Strength_Index
1 1 1 1 1 1 1 1 0 0 -0 0 0 0 0 1 1 1 1 1 1 2
1 1 1 1 0 1 0 1 0 -0 0 -0 0 0 1 1 1 1 1 1 1 1
1 1 1 0 1 1 0 1 1 0 0 0 0 0 1 1 1 1 1 1 1 1
1 1 1 1 1 1 -0 1 1 1 0 1 1 0 1 1 1 2 1 1 1 2
1 1 1 1 1 0 1 0 1 1 1 1 1 1 1 1 1 2 2 2 2 2
2 1 1 1 1 1 1 1 1 1 1 1 1 1 1 1 1 1 1 2 2 2
2 1 1 1 0 1 0 1 1 1 1 1 1 1 1 1 1 1 1 1 1 1
1 1 1 1 1 0 1 1 1 1 1 1 1 1 1 1 1 2 1 1 1 1
2 2 1 1 1 1 1 1 1 1 1 1 1 7 7 3 1 1 1 2 1 2
1 2 2 1 1 1 1 1 1 1 1 1 1 8 10 8 1 1 1 1 1 1
1 2 2 2 2 2 1 1 1 1 1 1 1 8 10 9 1 1 1 1 1 1
2 2 2 2 2 1 1 2 1 1 1 1 1 8 10 6 1 1 1 1 1 1
1 2 2 2 2 1 1 1 1 1 1 3 1 8 10 5 1 2 2 1 3 6
1 2 2 1 1 1 2 1 2 2 1 1 1 3 9 9 1 2 2 2 2 4